Location: Dötzum
(52.0808°N, 9.8063°E)
Time: 06:33:07
(UTC+00:00)

IDEFIX/ARIANE 42P - Pass Details

Date: 27 May 2022
Orbit: 785 x 802 km, 98.5° (Epoch: 26 June)

Event Time Altitude Azimuth Distance (km) Brightness Sun altitude
Rises 01:08:15 0° 19° (NNE) 3,327 7.8 -12.8°
Reaches altitude 10° 01:10:44 10° 27° (NNE) 2,392 6.6 -12.6°
Maximum altitude 01:15:43 41° 97° (E) 1,146 3.6 -12.3°
Drops below altitude 10° 01:20:41 10° 168° (SSE) 2,372 4.6 -11.9°
Enters shadow 01:21:07 - 170° (S) 2,535 4.7 -11.9°
